Regional Weather Roundup
Issued by NWS

Home | Current Version | Previous Version | Graphics & Text | Print | Product List | Glossary On
Versions: 1 2 3 4 5 6 7 8 9 10 11 12 13 14 15 16 17 18 19 20 21 22 23 24 25 26 27
000
ASUS43 KDMX 242007
RWRIA

WEATHER ROUNDUP FOR IOWA
NATIONAL WEATHER SERVICE DES MOINES IA
300 PM CDT THU APR 24 2014

NOTE: "FAIR" INDICATES FEW OR NO CLOUDS BELOW 12,000 FEET WITH NO
SIGNIFICANT WEATHER AND/OR OBSTRUCTIONS TO VISIBILITY.

* - THESE STATIONS ARE NOT NWS STATIONS...THUS NOT UNDER NWS
QUALITY CONTROL.  THEY ALSO DO NOT REPORT WEATHER SUCH
AS PRECIPITATION OR FOG.

IAZ001>003-012>014-020>022-031>034-043>046-242100-
   NORTHWEST IOWA

CITY           SKY/WX    TMP DP  RH WIND       PRES   REMARKS
CARROLL *      MOSUNNY   54  46  76 NW21      29.72R
CHEROKEE *     PTSUNNY   57  46  67 N14G22    29.72S
DENISON *      MOSUNNY   55  48  76 N13       29.73R
LE MARS *        N/A     61  46  59 N13G25    29.74F
ORANGE CITY *  MOSUNNY   61  43  51 N16       29.73S
SHELDON *      PTSUNNY   57  45  62 N17G23    29.72R
SIOUX CITY     MOSUNNY   65  44  46 NW20G29   29.73S
SPENCER        MOSUNNY   56  44  64 NW22      29.70F
STORM LAKE *   SUNNY     55  46  71 N16G26    29.72S
$$

IAZ055>058-069>071-079>083-090>094-242100-
   SOUTHWEST IOWA

CITY           SKY/WX    TMP DP  RH WIND       PRES   REMARKS
ATLANTIC *     PTSUNNY   54  48  82 N12       29.72F
AUDUBON *      MOSUNNY   52  45  76 NW10      29.74R
CLARINDA *     CLOUDY    55  50  82 NW16G29   29.71F
COUNCIL BLFS * SUNNY     55  50  82 NW15      29.74R
CRESTON *      CLOUDY    52  50  93 NW23      29.69R
HARLAN  *      MOSUNNY   55  48  76 NW21      29.77R
LAMONI         LGT RAIN  53  50  89 N15G23    29.65R FOG
RED OAK *      PTSUNNY   55  48  76 N16G24    29.71F
SHENANDOAH *   PTSUNNY   57  50  77 N17       29.72F
$$

IAZ047>049-059>061-072>074-084-242100-
   CENTRAL IOWA

CITY           SKY/WX    TMP DP  RH WIND       PRES   REMARKS
AMES           CLOUDY    54  46  74 NW17G23   29.67R
ANKENY *       CLOUDY    54  50  87 NW15G22   29.67R
CHARITON *     LGT RAIN  54  54 100 CALM      29.66R
DES MOINES     DRIZZLE   55  50  83 NW16G22   29.68R
GRINNELL*      RAIN      52  50  93 S5        29.65F
KNOXVILLE *    LGT RAIN  54  52  94 SW6       29.65R
MARSHALLTOWN   LGT RAIN  53  52  96 S3        29.65F FOG
NEWTON *       CLOUDY    54  54 100 W3        29.66S FOG
PELLA *        HVY RAIN  54  52  94 S5        29.66R
PERRY *        CLOUDY    52  45  76 NW16      29.70R
$$

IAZ004>006-015-016-023>025-035-036-242100-
   NORTH CENTRAL IOWA

CITY           SKY/WX    TMP DP  RH WIND       PRES   REMARKS
ALGONA *       CLOUDY    50  45  81 NW15      29.69R
CLARION *      CLOUDY    50  46  87 NW16      29.67R
ESTHERVILLE    PTSUNNY   53  48  83 NW21G26   29.69S
FORT DODGE *   CLOUDY    50  43  76 NW12G20   29.71R
MASON CITY     CLOUDY    51  45  79 NW10      29.67
FOREST CITY *  CLOUDY    50  43  76 N10G17    29.65F
IOWA FALLS *   CLOUDY    52  46  82 NW16      29.68R
$$

IAZ007>011-017>019-026>030-037>042-050>054-066-242100-
   NORTHEAST IOWA

CITY           SKY/WX    TMP DP  RH WIND       PRES   REMARKS
CEDAR RAPIDS   CLOUDY    51  49  92 S10       29.66S
CHARLES CITY * CLOUDY    48  46  93 SW8       29.67R
CLINTON *      CLOUDY    55  48  76 SE16      29.73F
DECORAH *      CLOUDY    46  46 100 CALM      29.65F FOG
DUBUQUE        LGT RAIN  52  48  86 S21       29.69F FOG
MONTICELLO *   LGT RAIN  54  50  87 SE14G21   29.67F
OELWEIN *      CLOUDY   N/A N/A N/A S9        29.67R
WATERLOO       CLOUDY    50  48  93 SW6       29.66R FOG
$$

IAZ064-065-067-068-078-242100-
   EAST CENTRAL IOWA

CITY           SKY/WX    TMP DP  RH WIND       PRES   REMARKS
DAVENPORT      CLOUDY    58  47  66 SE13      29.69F
IOWA CITY      CLOUDY    54  51  90 SE7       29.67F
MT. PLEASANT * CLOUDY    57  48  72 SE21G26   29.61F
MUSCATINE *    PTSUNNY   61  50  67 SE8       29.65F
QUAD CITIES    CLOUDY    59  49  69 SE15      29.68F
$$

IAZ062-063-075>077-085>089-095>099-242100-
   SOUTHEAST IOWA

CITY           SKY/WX    TMP DP  RH WIND       PRES   REMARKS
BURLINGTON     LGT RAIN  56  50  80 SE15      29.64F
FAIRFIELD *    CLOUDY    55  50  82 CALM      29.64F
FORT MADISON * LGT RAIN  54  52  94 SE18      29.63F
KEOKUK *       CLOUDY    55  52  88 SE15      29.60F
OSKALOOSA *    CLOUDY    55  50  82 S9        29.64F
CENTERVILLE *  CLOUDY    55  54  94 SW3       29.65R
OTTUMWA        CLOUDY    55  49  80 S6        29.64F
WASHINGTON *   CLOUDY    57  52  82 S10       29.66R
$$

ABBREVIATIONS USED IN REMARKS
   TC - TEMPERATURES IN CELSIUS
  WCI - WIND CHILL INDEX
   HX - HEAT INDEX
  VSB - VISIBILITY
$$




USA.gov is the U.S. government's official web portal to all federal, state and local government web resources and services.